Weather History for Olathe, KS

Change the Weather History Date:

Wednesday, January 16, 2013

  Actual Average Record
Temperature  
Mean Temperature 30 °F 30 °F  
Max Temperature 45 °F 39 °F 68 °F (1952)
Min Temperature 15 °F 21 °F -12 °F (1977)
Degree Days  
Heating Degree Days 35 35  
Month to date heating degree days 528 560  
Since 1 July heating degree days 2326 2525  
Cooling Degree Days 0 0  
Month to date cooling degree days 0 0  
Year to date cooling degree days 0 0  
Moisture  
Dew Point 19 °F    
Average Humidity 60    
Maximum Humidity 80    
Minimum Humidity 40    
Precipitation  
Precipitation 0.00 in 0.05 in 0.96 in (1941)
Month to date precipitation 0.31 0.48  
Year to date precipitation 0.31 0.48  
Sea Level Pressure  
Sea Level Pressure 30.12 in    
Wind  
Wind Speed 7 mph (SW)    
Max Wind Speed 17 mph    
Max Gust Speed 22 mph    
Visibility 10 miles    
Events      
T = Trace of Precipitation, MM = Missing Value Source: NWS Daily Summary

Daily Weather History Graph

Daily Weather History Graph

Search for Another Location

Airport:

Trip Planner

Search our weather history database for the weather conditions in past years. The results will help you decide how hot, cold, wet, or windy it might be!

Date:

Astronomy

Jan. 16, 2013 Rise Set
Actual Time 7:35 AM CST 5:22 PM CST
Civil Twilight 7:06 AM CST 5:51 PM CST
Nautical Twilight 6:33 AM CST 6:24 PM CST
Astronomical Twilight 6:01 AM CST 6:56 PM CST
Moon 10:15 AM CST (1/16) 11:11 PM CST (1/16)
Length of Visible Light 10h 45m
Length of Day
9h 47m
Waxing Crescent, 28% of the Moon is Illuminated
Jan 16
Waxing Crescent
Jan 18
First Quarter
Jan 26
Full
Feb 3
Last Quarter
Feb 10
New

Hourly Weather History & Observations

Time (CST) Temp. Windchill Dew Point Humidity Pressure Visibility Wind Dir Wind Speed Gust Speed Precip Events Conditions
12:53 AM 19.0 °F 12.3 °F 9.0 °F 65% 30.19 in 10.0 mi SSW 4.6 mph - N/A   Clear
1:53 AM 18.0 °F 12.7 °F 10.0 °F 71% 30.17 in 10.0 mi SSW 3.5 mph - N/A   Clear
3:53 AM 16.0 °F 10.4 °F 10.0 °F 77% 30.15 in 10.0 mi SSW 3.5 mph - N/A   Clear
4:53 AM 16.0 °F 10.4 °F 10.9 °F 81% 30.13 in 10.0 mi SSW 3.5 mph - N/A   Clear
5:53 AM 17.1 °F 10.0 °F 10.0 °F 74% 30.11 in 10.0 mi SW 4.6 mph - N/A   Clear
6:53 AM 15.1 °F 6.4 °F 10.0 °F 80% 30.09 in 10.0 mi SSW 5.8 mph - N/A   Clear
7:53 AM 17.1 °F 10.0 °F 10.9 °F 77% 30.10 in 10.0 mi SSW 4.6 mph - N/A   Clear
8:53 AM 23.0 °F 13.9 °F 15.1 °F 72% 30.12 in 10.0 mi SSW 8.1 mph - N/A   Clear
9:53 AM 28.9 °F 19.8 °F 17.1 °F 61% 30.11 in 10.0 mi WSW 10.4 mph - N/A   Clear
10:53 AM 34.0 °F 25.0 °F 19.0 °F 54% 30.09 in 10.0 mi SSW 12.7 mph - N/A   Mostly Cloudy
11:53 AM 37.0 °F 29.8 °F 17.1 °F 44% 30.07 in 10.0 mi SW 10.4 mph - N/A   Overcast
12:53 PM 39.9 °F 32.5 °F 18.0 °F 41% 30.04 in 10.0 mi SW 12.7 mph - N/A   Mostly Cloudy
2:53 PM 43.0 °F 37.7 °F 23.0 °F 45% 30.06 in 10.0 mi WSW 9.2 mph - N/A   Clear
3:53 PM 44.1 °F 39.0 °F 24.1 °F 45% 30.06 in 10.0 mi WSW 9.2 mph - N/A   Clear
4:53 PM 43.0 °F 40.3 °F 25.0 °F 49% 30.08 in 10.0 mi WSW 4.6 mph - N/A   Clear
5:53 PM 39.0 °F 36.8 °F 25.0 °F 57% 30.10 in 10.0 mi SSW 3.5 mph - N/A   Clear
6:53 PM 36.0 °F 33.3 °F 24.1 °F 62% 30.12 in 10.0 mi SSW 3.5 mph - N/A   Clear
7:53 PM 36.0 °F 33.3 °F 24.1 °F 62% 30.13 in 10.0 mi SSW 3.5 mph - N/A   Clear
8:53 PM 35.1 °F 30.1 °F 25.0 °F 67% 30.13 in 10.0 mi West 5.8 mph - N/A   Clear
9:53 PM 36.0 °F 32.1 °F 27.0 °F 70% 30.14 in 10.0 mi West 4.6 mph - N/A   Clear
10:53 PM 37.0 °F 31.6 °F 28.0 °F 70% 30.16 in 10.0 mi WNW 6.9 mph - N/A   Clear
11:53 PM 37.0 °F 30.4 °F 28.0 °F 70% 30.19 in 10.0 mi NNW 9.2 mph - N/A   Clear